#timestamp,LO_Frequency,Hit 
1500969615.5,286046996.7,N
1500969635.3,286047002.7,N
1500969655.1,286047001.9,N
1500969675.9,286047003.6,N
1500969695.7,286047004.4,N
1500969715.5,286047003.6,N
1500969735.4,286047004.2,N
1500969755.2,286047001.3,N
1500969775.0,286047003.7,N
1500969775.9,286047003.7,N
1500969795.8,286047004.3,N
1500969815.6,286047005.7,N
1500969835.4,286047005.2,N
1500969855.3,286047004.9,N
1500969875.1,286047006.3,N
1500969876.0,286047006.3,N
1500969895.8,286047005.3,N
1500969915.7,286047008.6,N
1500969935.5,286047005.3,N
1500969955.3,286047004.8,N
1500969975.1,286047003.3,N
1500969995.9,286047007.4,N
1500970015.7,286047003.6,N
1500970035.5,286046998.1,N
1500970055.4,286046999.8,N
1500970075.2,286047004.5,N
1500970095.0,286047001.1,N
1500970095.9,286047001.1,N
1500970115.8,286047002.4,N
1500970135.6,286047003.2,N
1500970155.4,286047001.4,N
1500970175.3,286047002.6,N
1500970195.1,286047003.8,N
1500970196.0,286047003.8,N
1500970215.8,286047004.1,N
1500970235.6,286047004.4,N
1500970255.5,286047002.7,N
1500970275.3,286046999.4,N
1500970295.1,286047004.4,N
1500970315.9,286047002.2,N
1500970335.7,286046996.5,N
1500970355.5,286046999.8,N
1500970375.4,286047003.4,N
1500970395.2,286047005.3,N
1500970415.0,286047006.6,N
1500970415.9,286047006.6,N
1500970435.8,286047006.9,N
1500970455.6,286047006.8,N
1500970475.4,286047007.1,N
1500970495.2,286047007.2,N
1500970515.1,286047003.2,N
1500970516.0,286047003.2,N
1500970535.8,286047001.4,N
1500970555.6,286047001.3,N
1500970575.5,286047006.3,N
1500970595.3,286047008.7,N
1500970615.1,286047007.5,N
1500970635.9,286047004.8,N
1500970655.7,286047004.3,N
1500970675.5,286047002.7,N
1500970695.4,286047003.4,N
1500970715.2,286047002.8,N
1500970735.0,286047004.1,N
1500970735.9,286047004.1,N
1500970755.7,286047007.3,N
1500970775.6,286047009.6,N
1500970795.4,286047007.1,N
1500970815.2,286047007.3,N
1500970835.1,286047012.0,Y
1500970836.0,286047012.0,Y
1500970855.8,286047005.6,N
1500970875.7,286047001.8,N
1500970895.5,286047002.4,N
1500970915.3,286047003.9,N
1500970935.1,286047000.1,N
1500970955.9,286047000.7,N
1500970975.7,286047001.8,N
1500970995.5,286047000.9,N
1500971015.4,286047002.7,N
1500971035.2,286047000.0,N
1500971055.0,286047001.0,N
1500971055.9,286047001.0,N
1500971075.8,286047005.0,N
1500971095.6,286047006.0,N
1500971115.4,286047000.4,N
1500971135.3,286047000.3,N
1500971155.1,286047002.3,N
1500971156.0,286047002.3,N
1500971175.8,286047002.2,N
1500971195.7,286047004.9,N
1500971215.5,286047006.0,N
1500971235.3,286047006.0,N
1500971255.1,286047005.6,N
1500971275.9,286047003.5,N
1500971295.7,286047005.2,N
1500971315.5,286047010.4,Y
1500971335.4,286047004.3,N
1500971355.2,286046998.1,N
1500971375.0,286046998.5,N
1500971375.9,286046998.5,N
1500971395.8,286046999.3,N
1500971415.6,286047002.0,N
1500971435.4,286047002.1,N
1500971455.3,286046998.6,N
1500971475.1,286046998.5,N
1500971476.0,286046998.5,N
1500971495.8,286046998.2,N
1500971515.7,286046998.3,N
1500971535.5,286047001.7,N
1500971555.3,286047004.2,N
1500971575.2,286047003.7,N
1500971595.9,286047002.0,N
1500971615.7,286047000.3,N
1500971635.5,286047002.0,N
1500971655.4,286046999.1,N
1500971675.2,286047000.4,N
1500971695.0,286047002.3,N
1500971695.9,286047002.3,N
1500971715.8,286047003.8,N
1500971735.6,286047000.6,N
1500971755.4,286047003.7,N
1500971775.3,286047002.0,N
1500971795.1,286046997.2,N
1500971796.0,286046997.2,N
1500971815.8,286047002.8,N
1500971835.7,286046998.7,N
1500971855.5,286046998.9,N
1500971875.3,286046998.9,N
1500971895.2,286047001.0,N
1500971915.9,286047000.8,N
1500971935.7,286047000.1,N
1500971955.5,286046999.5,N
1500971975.4,286047000.4,N
1500971995.2,286046999.3,N
1500972015.0,286046999.8,N
1500972015.9,286046999.8,N
1500972035.8,286046999.1,N
1500972055.6,286046999.7,N
1500972075.4,286047000.2,N
1500972095.3,286046998.8,N
1500972115.1,286046993.3,N
1500972116.0,286046993.3,N
1500972135.8,286046997.5,N
1500972155.7,286046995.0,N
1500972175.5,286046997.6,N
1500972195.3,286046998.3,N
1500972215.2,286046998.5,N
1500972235.9,286047000.8,N
1500972255.7,286047004.0,N
1500972275.5,286047000.7,N
1500972295.4,286047000.4,N
1500972315.2,286047002.1,N
1500972335.0,286047004.1,N
1500972335.9,286047004.1,N
1500972355.8,286047003.3,N
1500972375.6,286047000.1,N
1500972395.4,286047002.4,N
1500972415.3,286047004.1,N
1500972435.1,286047004.0,N
1500972436.0,286047004.0,N
1500972455.8,286047005.0,N
1500972475.7,286047005.1,N
1500972495.5,286047003.1,N
1500972515.3,286047005.2,N
1500972535.2,286047005.6,N
1500972555.9,286047004.6,N
1500972575.7,286047003.9,N
1500972595.5,286047003.9,N
1500972615.4,286046999.8,N
1500972635.2,286047002.2,N
1500972655.0,286047002.2,N
1500972655.9,286047002.2,N
1500972675.8,286047002.5,N
1500972695.6,286047002.0,N
1500972715.4,286047003.0,N
1500972735.3,286047009.2,N
1500972755.1,286047006.7,N
1500972756.0,286047006.7,N
1500972775.8,286047007.5,N
1500972795.7,286047009.0,N
1500972815.5,286047003.5,N
1500972835.3,286047001.6,N
1500972855.2,286047004.1,N
1500972875.9,286047002.9,N
1500972895.7,286047003.4,N
1500972915.5,286047002.9,N
1500972935.4,286047001.0,N
1500972955.2,286047002.7,N
1500972975.0,286046999.7,N
1500972975.9,286046999.7,N
1500972995.8,286047003.0,N
1500973015.6,286047003.3,N
1500973035.4,286047001.4,N
1500973055.3,286046999.8,N
1500973075.8,286047003.4,N
1500973095.6,286047005.2,N
1500973115.4,286047007.4,N
1500973135.3,286047009.4,N
1500973155.1,286047008.1,N
1500973175.8,286047008.5,N
1500973195.7,286047005.6,N
